Location: *
(48.8780°N, 19.2358°E)
Time: 01:09:40
(UTC+00:00)

STARLINK-43 - Pass Details

Date: 18 October 2019
Orbit: 478 x 481 km, 53.0° (Epoch: 12 November)

Event Time Altitude Azimuth Distance (km) Brightness Sun altitude
Rises 16:41:14 0° 279° (W) 2,534 8.9 -9.4°
Reaches altitude 10° 16:43:29 10° 286° (WNW) 1,656 7.4 -9.8°
Maximum altitude 16:47:03 42° 359° (N) 692 4.1 -10.4°
Enters shadow 16:49:55 15° 68° (ENE) 1,388 5.1 -10.8°
